[[{"header":{"parameterUnit":"m.s-1","parameterCategory":1,"la1":30.2991,"la2":30.254,"lo1":-89.0895,"lo2":-89.0444,"dy":0.0017,"dx":0.0017,"nx":28,"ny":28,"refTime":"2025-09-05T21:00:00:Z","depth":0,"parameterNumber":2,"parameterNumberName":"U-component_of_WINDS"},"data":[0,0,0,0,0,0,0,0,0,0,0,0,0,0,0,0,0,0,0,0,0,0,0,0,0,0,0,0,0,0,0,0,0,0,0,0,0,0,0,0,0,0,0,0,0,0,0,0,0,0,0,0,0,0,0,0,0,0,0.4954,0.4953,0,0.4865,0.4864,0.4863,0.4852,0.4853,0.4854,0.4855,0.4758,0.4755,0.4752,0,0,0,0,0,0,0,0,0,0,0,0,0,0.5108,0.5106,0.4954,0.4953,0.4952,0.4865,0.4864,0.4863,0.4852,0.4853,0.4854,0.4855,0.4759,0.4755,0.4751,0,0,0,0,0,0,0,0,0,0,0,0,0,0.5033,0.5105,0.4954,0.4936,0.4934,0.4866,0.4864,0.4863,0.4852,0.4853,0.4854,0.4856,0.4761,0.4756,0.4751,0.4693,0,0,0.4735,0.4733,0,0,0,0,0,0,0,0,0.5037,0.5027,0.494,0.4937,0.4934,0.4871,0.4883,0.4806,0.4851,0.4883,0.4855,0.4856,0.4794,0.4787,0.4767,0.4689,0.4684,0.4735,0.4732,0.4729,0.4728,0,0,0,0,0,0,0,0.5042,0.5031,0.4919,0.4939,0.4935,0.493,0.4921,0.4868,0.4832,0.488,0.4879,0.4869,0.4793,0.4772,0.4765,0.4683,0.4735,0.473,0.4727,0.4725,0.4551,0.4549,0,0,0,0,0,0,0.5052,0.5035,0.4922,0.4916,0.499,0.4927,0.4916,0.489,0.4833,0.4825,0.4868,0.4869,0.478,0.477,0.4761,0.4688,0.473,0.4725,0.4722,0.4552,0.455,0.4549,0,0,0,0,0,0,0.5055,0.5042,0.4925,0.4975,0.496,0.4923,0.4893,0.4888,0.4866,0.4824,0.4816,0.4853,0.4781,0.4768,0.471,0.4685,0.4722,0.4718,0.4554,0.4552,0.4549,0.4543,0,0,0,0,0,0,0.5059,0.5043,0.5022,0.4975,0.4958,0.4877,0.4892,0.4885,0.4858,0.4859,0.4808,0.4801,0.4781,0.4718,0.4705,0.4678,0.4714,0.4556,0.4553,0.455,0.4545,0.4541,0.4537,0,0,0,0,0,0.5065,0.5023,0.5021,0.5007,0.4931,0.4876,0.4866,0.4845,0.4857,0.4834,0.4806,0.4802,0.469,0.4712,0.4697,0.4669,0.4558,0.4554,0.455,0.4547,0.4542,0.4537,0,0,0,0,0,0,0.5066,0.5017,0.5014,0.4956,0.4921,0.4874,0.4845,0.484,0.4799,0.4801,0.4775,0.4764,0.4706,0.4682,0.4707,0.4609,0.4625,0.4618,0.4627,0.4621,0.4617,0.4623,0.471,0,0,0,0,0,0.506,0.5022,0.4979,0.4932,0.4915,0.4883,0.4859,0.4846,0.4807,0.4792,0.476,0.4721,0.4677,0.4648,0.4605,0.4542,0.453,0.4515,0.4511,0.4508,0.4502,0.4465,0.4457,0.4537,0.4537,0.4537,0,0,0.5046,0.5014,0.4991,0.4932,0.4903,0.4861,0.4871,0.4827,0.4795,0.4784,0.4727,0.4702,0.4657,0.4596,0.4568,0.4574,0.4477,0.4503,0.4501,0.4497,0.446,0.4453,0.4446,0.4534,0.4535,0.4535,0,0,0.5,0.4973,0.493,0.4901,0.4857,0.4837,0.4826,0.4781,0.4764,0.4707,0.4698,0.4659,0.4584,0.4552,0.4525,0.4466,0.446,0.4453,0.443,0.4394,0.4387,0.4382,0.4358,0.4351,0.4447,0.4447,0.4447,0,0.4987,0.4926,0.4908,0.4864,0.4837,0.4827,0.4782,0.4754,0.4698,0.4679,0.4687,0.4592,0.4561,0.4491,0.4477,0.4457,0.4442,0.4457,0.439,0.4384,0.4379,0.4356,0.4348,0.4446,0.4446,0.4446,0.4447,0,0.4912,0.487,0.484,0.4788,0.4757,0.4713,0.4686,0.4657,0.4647,0.4624,0.4565,0.4528,0.4476,0.4459,0.4448,0.4387,0.4392,0.4396,0.441,0.4371,0.4349,0.434,0.4445,0.4445,0.4446,0.4446,0,0,0.4863,0.4801,0.479,0.4766,0.4717,0.4683,0.4637,0.4589,0.4563,0.4525,0.4484,0.4421,0.4424,0.4394,0.4379,0.4348,0.4301,0.4355,0.4354,0.4345,0.4229,0.4225,0.4215,0.4298,0.4296,0.4294,0.4232,0,0.4809,0.4729,0.4711,0.4641,0.46,0.4591,0.4551,0.4515,0.4493,0.4454,0.4429,0.4383,0.4392,0.4373,0.4342,0.4313,0.4277,0.4318,0.4257,0.4255,0.4267,0.4204,0.42,0.4143,0.4223,0.4222,0.4221,0,0.4735,0.4696,0.4623,0.4579,0.4561,0.4526,0.4479,0.4442,0.4401,0.4387,0.4354,0.4342,0.4292,0.4311,0.424,0.4268,0.4242,0.4224,0.4221,0.4213,0.4234,0.4192,0.4124,0.4115,0.4208,0.4209,0.421,0,0.4704,0.4633,0.458,0.456,0.4508,0.4482,0.4459,0.4419,0.4391,0.4349,0.433,0.4283,0.4257,0.4219,0.4194,0.4211,0.4124,0.4142,0.4109,0.411,0.409,0.4091,0.4014,0.4077,0.4077,0.4077,0.4077,0,0.4644,0.4599,0.4565,0.4532,0.4481,0.446,0.4409,0.4385,0.435,0.431,0.4299,0.4262,0.4232,0.419,0.417,0.4113,0.4102,0.4087,0.4082,0.4087,0.4089,0.4068,0.4071,0.4075,0.4075,0.4076,0.4076,0,0.46,0.4576,0.4517,0.4472,0.446,0.4424,0.4385,0.4351,0.4329,0.4279,0.4266,0.4231,0.4181,0.4153,0.409,0.4076,0.4012,0.401,0.4026,0.4023,0.3992,0.3994,0.3897,0.3883,0.3957,0.3956,0.3956,0,0.4562,0.4528,0.448,0.4454,0.443,0.4388,0.4359,0.4336,0.4306,0.4257,0.4228,0.4178,0.4137,0.4057,0.4024,0.3975,0.397,0.394,0.3963,0.3968,0.3967,0.3969,0.3964,0.3935,0.3935,0.3934,0.3934,0,0.4498,0.4488,0.4448,0.4403,0.4369,0.4333,0.4296,0.4275,0.4245,0.4212,0.4162,0.413,0.4066,0.4015,0.3963,0.3937,0.3929,0.3927,0.3916,0.392,0.393,0.3922,0.4013,0.3929,0.3929,0.393,0.393,0.393,0.4454,0.4422,0.4384,0.4339,0.431,0.4276,0.4242,0.4216,0.4174,0.4121,0.411,0.4056,0.4014,0.3945,0.3917,0.3873,0.3878,0.3864,0.3859,0.3856,0.3853,0.3939,0.3864,0.3864,0.3864,0.3864,0.3864,0,0.4387,0.4362,0.4321,0.4271,0.4235,0.4234,0.4193,0.4163,0.4116,0.4079,0.4039,0.398,0.3931,0.3894,0.3843,0.3815,0.381,0.3802,0.3803,0.3796,0.3853,0.3866,0.3807,0.3807,0.3807,0.3807,0.3807,0.3807,0.4348,0.4293,0.4279,0.4209,0.4183,0.4132,0.4109,0.4076,0.4046,0.3982,0.3941,0.3919,0.3881,0.3827,0.3781,0.3772,0.3752,0.3744,0.3734,0.3787,0.3793,0.3798,0.3811,0.3741,0.3741,0.3681,0.3681,0.368]},{"header":{"parameterUnit":"m.s-1","parameterCategory":1,"la1":30.2991,"la2":30.254,"lo1":-89.0895,"lo2":-89.0444,"dy":0.0017,"dx":0.0017,"nx":28,"ny":28,"refTime":"2025-09-05T21:00:00:Z","depth":0,"parameterNumber":3,"parameterNumberName":"V-component_of_WINDS"},"data":[0,0,0,0,0,0,0,0,0,0,0,0,0,0,0,0,0,0,0,0,0,0,0,0,0,0,0,0,0,0,0,0,0,0,0,0,0,0,0,0,0,0,0,0,0,0,0,0,0,0,0,0,0,0,0,0,0,0,2.4095,2.4096,0,2.4185,2.4186,2.4187,2.4222,2.4222,2.4222,2.4222,2.4308,2.431,2.4313,0,0,0,0,0,0,0,0,0,0,0,0,0,2.3945,2.3947,2.4095,2.4096,2.4097,2.4185,2.4186,2.4187,2.4222,2.4222,2.4222,2.4222,2.4307,2.431,2.4313,0,0,0,0,0,0,0,0,0,0,0,0,0,2.402,2.3948,2.4095,2.4126,2.4129,2.4185,2.4186,2.4188,2.4222,2.4222,2.4222,2.4222,2.4306,2.431,2.4313,2.4343,0,0,2.4325,2.4326,0,0,0,0,0,0,0,0,2.4015,2.4025,2.412,2.4124,2.4128,2.4192,2.4165,2.4239,2.4223,2.4187,2.4222,2.4221,2.4269,2.4276,2.4293,2.4347,2.4351,2.4325,2.4327,2.4329,2.433,0,0,0,0,0,0,0,2.401,2.4021,2.413,2.4121,2.4126,2.4132,2.4142,2.4179,2.4228,2.419,2.4193,2.4203,2.4271,2.429,2.4296,2.4352,2.4325,2.4328,2.4331,2.4332,2.4429,2.443,0,0,0,0,0,0,2.4001,2.4017,2.4128,2.4133,2.407,2.4135,2.4146,2.4172,2.4228,2.4237,2.4203,2.4205,2.4283,2.4291,2.4299,2.4335,2.4329,2.4332,2.4335,2.4429,2.443,2.443,0,0,0,0,0,0,2.3997,2.401,2.4124,2.4076,2.4091,2.4138,2.4166,2.4174,2.4192,2.4239,2.4247,2.4214,2.4283,2.4293,2.4331,2.4339,2.4334,2.4337,2.4429,2.4429,2.443,2.4409,0,0,0,0,0,0,2.3993,2.4009,2.4023,2.4076,2.4093,2.4158,2.4167,2.4176,2.4199,2.4202,2.4251,2.4258,2.4284,2.4325,2.4335,2.4344,2.434,2.4428,2.4429,2.443,2.4409,2.4409,2.4409,0,0,0,0,0,2.3988,2.4014,2.4024,2.4037,2.4113,2.4158,2.4168,2.4199,2.42,2.4213,2.4242,2.4257,2.4336,2.4329,2.434,2.435,2.4428,2.4429,2.4429,2.441,2.4409,2.4409,0,0,0,0,0,0,2.396,2.4021,2.4034,2.4078,2.4113,2.4164,2.4182,2.4198,2.4231,2.4232,2.4267,2.4277,2.4311,2.4334,2.4325,2.4379,2.4383,2.4386,2.4364,2.4364,2.4363,2.4357,2.4343,0,0,0,0,0,2.3959,2.3994,2.4044,2.4078,2.4095,2.4135,2.4156,2.4177,2.4213,2.4228,2.426,2.4293,2.4324,2.4345,2.4377,2.4412,2.4421,2.4424,2.4423,2.4423,2.4425,2.4442,2.4443,2.4432,2.4432,2.4432,0,0,2.3958,2.3996,2.4015,2.4074,2.4103,2.4135,2.4148,2.4182,2.4205,2.4232,2.427,2.4294,2.4332,2.4368,2.4385,2.4388,2.4429,2.4424,2.4423,2.4426,2.4443,2.4444,2.4444,2.4433,2.4433,2.4433,0,0,2.3972,2.4005,2.4036,2.4064,2.4108,2.4134,2.4141,2.4189,2.4206,2.4245,2.4265,2.4291,2.4347,2.4373,2.4393,2.4411,2.4424,2.442,2.4418,2.4434,2.4434,2.4435,2.444,2.4442,2.4422,2.4422,2.4422,0,2.3965,2.4016,2.4049,2.4081,2.4105,2.4131,2.416,2.4186,2.4237,2.4251,2.4254,2.4321,2.4349,2.439,2.4394,2.441,2.4416,2.4415,2.4432,2.4433,2.4434,2.4439,2.4441,2.4421,2.4421,2.4421,2.4421,0,2.4003,2.4038,2.4057,2.4107,2.4132,2.4162,2.4196,2.4217,2.4234,2.4258,2.4294,2.4328,2.4366,2.4377,2.4393,2.4418,2.4418,2.4426,2.443,2.4434,2.4439,2.4441,2.4419,2.442,2.442,2.442,0,0,2.4007,2.4071,2.4078,2.4099,2.4147,2.4173,2.4202,2.4241,2.4257,2.4289,2.4313,2.4357,2.4363,2.4386,2.4405,2.4419,2.4428,2.4424,2.4426,2.4423,2.4454,2.4449,2.4451,2.4437,2.4437,2.4438,2.4451,0,2.4027,2.4083,2.4111,2.4154,2.4184,2.4207,2.4232,2.4262,2.4284,2.4311,2.4334,2.4364,2.4371,2.4384,2.4399,2.4424,2.4435,2.4423,2.4457,2.4458,2.4447,2.4454,2.4449,2.446,2.4453,2.4454,2.4454,0,2.4059,2.4092,2.4138,2.418,2.4193,2.4216,2.4251,2.4277,2.4309,2.4324,2.4347,2.4365,2.4393,2.4393,2.443,2.4422,2.4436,2.445,2.4451,2.4456,2.4457,2.4458,2.4465,2.4466,2.4458,2.4457,2.4457,0,2.4055,2.4111,2.4145,2.4162,2.4212,2.4226,2.4247,2.428,2.4299,2.4329,2.4341,2.4373,2.439,2.4412,2.4437,2.4435,2.447,2.4474,2.4481,2.4481,2.4489,2.4488,2.4498,2.4498,2.4498,2.4498,2.4498,0,2.4075,2.4102,2.4144,2.4165,2.4194,2.4223,2.425,2.4272,2.43,2.4323,2.4344,2.4365,2.4395,2.4419,2.4437,2.4464,2.4472,2.4482,2.4487,2.4481,2.4479,2.4492,2.4492,2.4498,2.4498,2.4498,2.4498,0,2.4077,2.4106,2.4144,2.4187,2.4197,2.4217,2.4252,2.4271,2.4292,2.4321,2.4329,2.4362,2.439,2.4416,2.4454,2.4466,2.4493,2.4499,2.4482,2.4485,2.4491,2.449,2.4509,2.4512,2.451,2.451,2.451,0,2.4088,2.4109,2.4153,2.417,2.4191,2.4219,2.4239,2.4266,2.4285,2.4322,2.4336,2.4366,2.4392,2.4435,2.4461,2.4488,2.4495,2.4499,2.4499,2.4491,2.4494,2.4493,2.4494,2.4499,2.4499,2.4499,2.4499,0,2.4104,2.4116,2.4145,2.4178,2.4201,2.4228,2.4255,2.4268,2.4299,2.4319,2.4349,2.4369,2.4406,2.4434,2.4464,2.4482,2.4495,2.4498,2.4502,2.4496,2.4485,2.449,2.4481,2.4498,2.4498,2.4499,2.4499,2.4499,2.4111,2.4129,2.4162,2.4192,2.4215,2.4239,2.4259,2.4281,2.4307,2.4341,2.4354,2.4383,2.4411,2.4453,2.447,2.4491,2.4494,2.4499,2.45,2.4501,2.4499,2.4481,2.4497,2.4497,2.4497,2.4497,2.4497,0,2.4127,2.4148,2.4176,2.4213,2.4235,2.4245,2.4274,2.4292,2.4318,2.4344,2.4368,2.4399,2.4426,2.4452,2.448,2.4491,2.4497,2.4497,2.4497,2.45,2.4496,2.449,2.4492,2.4492,2.4492,2.4492,2.4492,2.4492,2.4138,2.417,2.4185,2.4226,2.4246,2.4276,2.4292,2.4312,2.4332,2.4368,2.439,2.4407,2.4432,2.446,2.4484,2.449,2.4499,2.4497,2.4505,2.4501,2.4501,2.4501,2.4496,2.4499,2.4499,2.4508,2.4508,2.4508]}]]